Time,TemperatureF,DewpointF,PressureIn,WindDirection,WindDirectionDegrees,WindSpeedMPH,WindSpeedGustMPH,Humidity,HourlyPrecipIn,Conditions,Clouds,dailyrainin,SoftwareType,DateUTC
2013-03-08 00:01:00,34.0,31.0,-100.00,NE,45,1.0,1.0,90,-99.99,,,-99.99,,2013-03-08 08:01:00,
2013-03-08 00:11:00,34.0,31.0,-100.00,NE,45,1.0,1.0,90,-99.99,,,-99.99,,2013-03-08 08:11:00,
2013-03-08 00:21:00,34.0,32.0,-100.00,NE,45,5.0,6.0,90,-99.99,,,-99.99,,2013-03-08 08:21:00,
2013-03-08 00:31:00,34.0,32.0,-100.00,NE,45,1.0,1.0,90,-99.99,,,-99.99,,2013-03-08 08:31:00,
2013-03-08 00:41:00,34.0,32.0,-100.00,NE,45,1.0,1.0,90,-99.99,,,-99.99,,2013-03-08 08:41:00,
2013-03-08 00:52:00,35.0,32.0,-100.00,NE,45,1.0,1.0,90,-99.99,,,-99.99,,2013-03-08 08:52:00,
2013-03-08 01:02:00,34.0,31.0,-100.00,NE,45,3.0,3.0,90,-99.99,,,-99.99,,2013-03-08 09:02:00,
2013-03-08 01:11:00,34.0,31.0,-100.00,NE,45,3.0,3.0,90,-99.99,,,-99.99,,2013-03-08 09:11:00,
2013-03-08 01:21:00,34.0,31.0,-100.00,NE,45,1.0,1.0,90,-99.99,,,-99.99,,2013-03-08 09:21:00,
2013-03-08 01:32:00,32.0,30.0,-100.00,East,90,0.0,1.0,90,-99.99,,,-99.99,,2013-03-08 09:32:00,
2013-03-08 01:42:00,32.0,30.0,-100.00,East,90,0.0,1.0,90,-99.99,,,-99.99,,2013-03-08 09:42:00,
2013-03-08 01:52:00,33.0,30.0,-100.00,NE,45,1.0,1.0,90,-99.99,,,-99.99,,2013-03-08 09:52:00,
2013-03-08 02:01:00,35.0,32.0,-100.00,North,0,3.0,4.0,90,-99.99,,,-99.99,,2013-03-08 10:01:00,
2013-03-08 02:11:00,35.0,32.0,-100.00,North,0,3.0,4.0,90,-99.99,,,-99.99,,2013-03-08 10:11:00,
2013-03-08 02:21:00,35.0,32.0,-100.00,North,0,3.0,4.0,90,-99.99,,,-99.99,,2013-03-08 10:21:00,
2013-03-08 02:31:00,34.0,32.0,-100.00,NE,45,2.0,3.0,90,-99.99,,,-99.99,,2013-03-08 10:31:00,
2013-03-08 02:42:00,34.0,32.0,-100.00,NE,45,2.0,3.0,90,-99.99,,,-99.99,,2013-03-08 10:42:00,
2013-03-08 02:52:00,34.0,32.0,-100.00,North,0,3.0,4.0,90,-99.99,,,-99.99,,2013-03-08 10:52:00,
2013-03-08 03:01:00,36.0,33.0,-100.00,North,0,1.0,3.0,90,-99.99,,,-99.99,,2013-03-08 11:01:00,
2013-03-08 03:11:00,36.0,33.0,-100.00,North,0,1.0,3.0,90,-99.99,,,-99.99,,2013-03-08 11:11:00,
2013-03-08 03:21:00,35.0,33.0,-100.00,NE,45,3.0,4.0,90,-99.99,,,-99.99,,2013-03-08 11:21:00,
2013-03-08 03:32:00,35.0,33.0,-100.00,NE,45,2.0,3.0,90,-99.99,,,-99.99,,2013-03-08 11:32:00,
2013-03-08 03:41:00,35.0,33.0,-100.00,NE,45,2.0,3.0,90,-99.99,,,-99.99,,2013-03-08 11:41:00,
2013-03-08 03:52:00,34.0,32.0,-100.00,NE,45,1.0,2.0,90,-99.99,,,-99.99,,2013-03-08 11:52:00,
2013-03-08 04:01:00,34.0,31.0,-100.00,NE,45,1.0,2.0,90,-99.99,,,-99.99,,2013-03-08 12:01:00,
2013-03-08 04:11:00,34.0,31.0,-100.00,NE,45,1.0,2.0,90,-99.99,,,-99.99,,2013-03-08 12:11:00,
2013-03-08 04:22:00,34.0,31.0,-100.00,NE,45,2.0,3.0,90,-99.99,,,-99.99,,2013-03-08 12:22:00,
2013-03-08 04:32:00,34.0,31.0,-100.00,NE,45,2.0,2.0,90,-99.99,,,-99.99,,2013-03-08 12:32:00,
2013-03-08 04:42:00,34.0,31.0,-100.00,NE,45,2.0,2.0,90,-99.99,,,-99.99,,2013-03-08 12:42:00,
2013-03-08 04:52:00,34.0,31.0,-100.00,NE,45,3.0,3.0,90,-99.99,,,-99.99,,2013-03-08 12:52:00,
2013-03-08 05:01:00,34.0,31.0,-100.00,NE,45,1.0,2.0,90,-99.99,,,-99.99,,2013-03-08 13:01:00,
2013-03-08 05:11:00,34.0,31.0,-100.00,NE,45,1.0,2.0,90,-99.99,,,-99.99,,2013-03-08 13:11:00,
2013-03-08 05:21:00,34.0,31.0,-100.00,NE,45,3.0,3.0,90,-99.99,,,-99.99,,2013-03-08 13:21:00,
2013-03-08 05:32:00,34.0,31.0,-100.00,East,90,1.0,2.0,90,-99.99,,,-99.99,,2013-03-08 13:32:00,
2013-03-08 05:42:00,34.0,31.0,-100.00,East,90,1.0,2.0,90,-99.99,,,-99.99,,2013-03-08 13:42:00,
2013-03-08 05:52:00,34.0,31.0,-100.00,NE,45,2.0,3.0,90,-99.99,,,-99.99,,2013-03-08 13:52:00,
2013-03-08 06:02:00,34.0,31.0,-100.00,NE,45,1.0,2.0,90,-99.99,,,-99.99,,2013-03-08 14:02:00,
2013-03-08 06:11:00,34.0,31.0,-100.00,NE,45,1.0,2.0,90,-99.99,,,-99.99,,2013-03-08 14:11:00,
2013-03-08 06:22:00,33.0,31.0,-100.00,South,180,0.0,1.0,90,-99.99,,,-99.99,,2013-03-08 14:22:00,
2013-03-08 06:32:00,33.0,30.0,-100.00,East,90,0.0,1.0,90,-99.99,,,-99.99,,2013-03-08 14:32:00,
2013-03-08 06:42:00,33.0,30.0,-100.00,East,90,0.0,1.0,90,-99.99,,,-99.99,,2013-03-08 14:42:00,
2013-03-08 06:52:00,32.0,29.0,-100.00,East,90,1.0,1.0,90,-99.99,,,-99.99,,2013-03-08 14:52:00,
2013-03-08 07:02:00,32.0,29.0,-100.00,East,90,1.0,1.0,90,-99.99,,,-99.99,,2013-03-08 15:02:00,
2013-03-08 07:11:00,32.0,29.0,-100.00,East,90,1.0,1.0,90,-99.99,,,-99.99,,2013-03-08 15:11:00,
2013-03-08 07:22:00,33.0,30.0,-100.00,East,90,1.0,1.0,90,-99.99,,,-99.99,,2013-03-08 15:22:00,
2013-03-08 07:32:00,34.0,32.0,-100.00,NE,45,2.0,3.0,90,-99.99,,,-99.99,,2013-03-08 15:32:00,
2013-03-08 07:42:00,34.0,32.0,-100.00,NE,45,2.0,3.0,90,-99.99,,,-99.99,,2013-03-08 15:42:00,
2013-03-08 07:53:00,35.0,32.0,-100.00,NE,45,1.0,3.0,90,-99.99,,,-99.99,,2013-03-08 15:53:00,
2013-03-08 08:01:00,36.0,33.0,-100.00,NE,45,3.0,4.0,90,-99.99,,,-99.99,,2013-03-08 16:01:00,
2013-03-08 08:11:00,36.0,33.0,-100.00,NE,45,3.0,4.0,90,-99.99,,,-99.99,,2013-03-08 16:11:00,
2013-03-08 08:21:00,36.0,33.0,-100.00,NE,45,3.0,4.0,90,-99.99,,,-99.99,,2013-03-08 16:21:00,
2013-03-08 08:31:00,36.0,33.0,-100.00,NE,45,3.0,4.0,90,-99.99,,,-99.99,,2013-03-08 16:31:00,
2013-03-08 08:42:00,36.0,33.0,-100.00,NE,45,3.0,4.0,90,-99.99,,,-99.99,,2013-03-08 16:42:00,
2013-03-08 08:52:00,36.0,33.0,-100.00,NE,45,2.0,3.0,90,-99.99,,,-99.99,,2013-03-08 16:52:00,
2013-03-08 09:02:00,36.0,33.0,-100.00,NE,45,3.0,5.0,90,-99.99,,,-99.99,,2013-03-08 17:02:00,
2013-03-08 09:11:00,36.0,33.0,-100.00,NE,45,3.0,5.0,90,-99.99,,,-99.99,,2013-03-08 17:11:00,
2013-03-08 09:21:00,37.0,34.0,-100.00,North,0,4.0,6.0,90,-99.99,,,-99.99,,2013-03-08 17:21:00,
2013-03-08 09:31:00,38.0,35.0,-100.00,NE,45,4.0,5.0,90,-99.99,,,-99.99,,2013-03-08 17:31:00,
2013-03-08 09:41:00,38.0,35.0,-100.00,NE,45,4.0,5.0,90,-99.99,,,-99.99,,2013-03-08 17:41:00,
2013-03-08 09:52:00,39.0,36.0,-100.00,NE,45,6.0,7.0,90,-99.99,,,-99.99,,2013-03-08 17:52:00,
2013-03-08 10:01:00,41.0,38.0,-100.00,NE,45,3.0,5.0,90,-99.99,,,-99.99,,2013-03-08 18:01:00,
2013-03-08 10:11:00,41.0,38.0,-100.00,NE,45,3.0,5.0,90,-99.99,,,-99.99,,2013-03-08 18:11:00,
2013-03-08 10:21:00,42.0,37.0,-100.00,North,0,3.0,6.0,81,-99.99,,,-99.99,,2013-03-08 18:21:00,
2013-03-08 10:31:00,43.0,35.0,-100.00,NE,45,4.0,6.0,72,-99.99,,,-99.99,,2013-03-08 18:31:00,
2013-03-08 10:42:00,43.0,35.0,-100.00,NE,45,4.0,6.0,72,-99.99,,,-99.99,,2013-03-08 18:42:00,
2013-03-08 10:52:00,43.0,33.0,-100.00,North,0,5.0,7.0,67,-99.99,,,-99.99,,2013-03-08 18:52:00,
2013-03-08 11:01:00,45.0,33.0,-100.00,NE,45,3.0,5.0,64,-99.99,,,-99.99,,2013-03-08 19:01:00,
2013-03-08 11:11:00,45.0,33.0,-100.00,NE,45,3.0,5.0,64,-99.99,,,-99.99,,2013-03-08 19:11:00,
2013-03-08 11:21:00,47.0,32.0,-100.00,NE,45,4.0,6.0,56,-99.99,,,-99.99,,2013-03-08 19:21:00,
2013-03-08 11:32:00,47.0,31.0,-100.00,North,0,3.0,4.0,54,-99.99,,,-99.99,,2013-03-08 19:32:00,
2013-03-08 11:52:00,47.0,31.0,-100.00,NW,315,4.0,6.0,53,-99.99,,,-99.99,,2013-03-08 19:52:00,
2013-03-08 12:01:00,48.0,31.0,-100.00,NE,45,3.0,6.0,51,-99.99,,,-99.99,,2013-03-08 20:01:00,
2013-03-08 12:21:00,50.0,31.0,-100.00,North,0,4.0,8.0,48,-99.99,,,-99.99,,2013-03-08 20:21:00,
2013-03-08 12:31:00,51.0,31.0,-100.00,NE,45,1.0,3.0,46,-99.99,,,-99.99,,2013-03-08 20:31:00,
2013-03-08 12:53:00,51.0,31.0,-100.00,North,0,4.0,6.0,46,-99.99,,,-99.99,,2013-03-08 20:53:00,
2013-03-08 13:01:00,51.0,30.0,-100.00,NE,45,3.0,4.0,44,-99.99,,,-99.99,,2013-03-08 21:01:00,
2013-03-08 13:21:00,53.0,30.0,-100.00,North,0,2.0,4.0,41,-99.99,,,-99.99,,2013-03-08 21:21:00,
2013-03-08 13:32:00,53.0,30.0,-100.00,North,0,4.0,9.0,40,-99.99,,,-99.99,,2013-03-08 21:32:00,
2013-03-08 13:52:00,54.0,31.0,-100.00,NW,315,4.0,8.0,41,-99.99,,,-99.99,,2013-03-08 21:52:00,
2013-03-08 14:01:00,54.0,30.0,-100.00,North,0,5.0,7.0,39,-99.99,,,-99.99,,2013-03-08 22:01:00,
2013-03-08 14:21:00,54.0,29.0,-100.00,North,0,6.0,8.0,39,-99.99,,,-99.99,,2013-03-08 22:21:00,
2013-03-08 14:32:00,54.0,30.0,-100.00,NE,45,6.0,8.0,39,-99.99,,,-99.99,,2013-03-08 22:32:00,
2013-03-08 14:52:00,55.0,31.0,-100.00,North,0,2.0,3.0,39,-99.99,,,-99.99,,2013-03-08 22:52:00,
2013-03-08 15:01:00,55.0,30.0,-100.00,NE,45,6.0,8.0,38,-99.99,,,-99.99,,2013-03-08 23:01:00,
2013-03-08 15:21:00,57.0,30.0,-100.00,North,0,6.0,9.0,36,-99.99,,,-99.99,,2013-03-08 23:21:00,
2013-03-08 15:32:00,57.0,30.0,-100.00,North,0,3.0,3.0,36,-99.99,,,-99.99,,2013-03-08 23:32:00,
2013-03-08 15:52:00,56.0,30.0,-100.00,NE,45,4.0,8.0,36,-99.99,,,-99.99,,2013-03-08 23:52:00,
2013-03-08 16:01:00,58.0,30.0,-100.00,NW,315,4.0,6.0,35,-99.99,,,-99.99,,2013-03-09 00:01:00,
2013-03-08 16:21:00,58.0,30.0,-100.00,North,0,3.0,4.0,34,-99.99,,,-99.99,,2013-03-09 00:21:00,
2013-03-08 16:31:00,58.0,30.0,-100.00,SW,225,2.0,4.0,34,-99.99,,,-99.99,,2013-03-09 00:31:00,
2013-03-08 16:52:00,58.0,30.0,-100.00,NW,315,3.0,4.0,34,-99.99,,,-99.99,,2013-03-09 00:52:00,
2013-03-08 17:01:00,58.0,30.0,-100.00,North,0,4.0,6.0,34,-99.99,,,-99.99,,2013-03-09 01:01:00,
2013-03-08 17:21:00,58.0,30.0,-100.00,NE,45,3.0,4.0,34,-99.99,,,-99.99,,2013-03-09 01:21:00,
2013-03-08 19:32:00,41.0,34.0,-100.00,North,-999,0.0,0.0,75,-99.99,,,-99.99,,2013-03-09 03:32:00,
2013-03-08 19:52:00,40.0,34.0,-100.00,NE,45,0.0,1.0,78,-99.99,,,-99.99,,2013-03-09 03:52:00,
2013-03-08 20:01:00,40.0,34.0,-100.00,NW,315,1.0,4.0,80,-99.99,,,-99.99,,2013-03-09 04:01:00,
2013-03-08 20:11:00,40.0,34.0,-100.00,NW,315,1.0,4.0,80,-99.99,,,-99.99,,2013-03-09 04:11:00,
2013-03-08 20:22:00,46.0,37.0,-100.00,West,270,3.0,4.0,70,-99.99,,,-99.99,,2013-03-09 04:22:00,
2013-03-08 20:31:00,47.0,35.0,-100.00,NW,315,4.0,9.0,63,-99.99,,,-99.99,,2013-03-09 04:31:00,
2013-03-08 20:41:00,47.0,35.0,-100.00,NW,315,4.0,9.0,63,-99.99,,,-99.99,,2013-03-09 04:41:00,
2013-03-08 20:52:00,47.0,34.0,-100.00,West,270,4.0,8.0,60,-99.99,,,-99.99,,2013-03-09 04:52:00,
2013-03-08 21:01:00,47.0,33.0,-100.00,North,0,3.0,6.0,58,-99.99,,,-99.99,,2013-03-09 05:01:00,
2013-03-08 21:11:00,47.0,33.0,-100.00,North,0,3.0,6.0,58,-99.99,,,-99.99,,2013-03-09 05:11:00,
2013-03-08 21:21:00,47.0,33.0,-100.00,NE,45,1.0,3.0,58,-99.99,,,-99.99,,2013-03-09 05:21:00,
2013-03-08 21:31:00,47.0,33.0,-100.00,NW,315,2.0,3.0,58,-99.99,,,-99.99,,2013-03-09 05:31:00,
2013-03-08 21:42:00,47.0,33.0,-100.00,NW,315,2.0,3.0,58,-99.99,,,-99.99,,2013-03-09 05:42:00,
2013-03-08 21:53:00,45.0,32.0,-100.00,North,0,1.0,2.0,60,-99.99,,,-99.99,,2013-03-09 05:53:00,
2013-03-08 22:01:00,42.0,31.0,-100.00,North,-999,0.0,0.0,66,-99.99,,,-99.99,,2013-03-09 06:01:00,
2013-03-08 22:11:00,42.0,31.0,-100.00,North,-999,0.0,0.0,66,-99.99,,,-99.99,,2013-03-09 06:11:00,
2013-03-08 22:22:00,40.0,32.0,-100.00,NE,45,1.0,2.0,73,-99.99,,,-99.99,,2013-03-09 06:22:00,
2013-03-08 22:31:00,39.0,33.0,-100.00,NE,45,2.0,2.0,78,-99.99,,,-99.99,,2013-03-09 06:31:00,
2013-03-08 22:42:00,39.0,33.0,-100.00,NE,45,2.0,2.0,78,-99.99,,,-99.99,,2013-03-09 06:42:00,
2013-03-08 22:52:00,38.0,32.0,-100.00,NE,45,1.0,1.0,80,-99.99,,,-99.99,,2013-03-09 06:52:00,
2013-03-08 23:01:00,38.0,33.0,-100.00,NE,45,1.0,2.0,83,-99.99,,,-99.99,,2013-03-09 07:01:00,
2013-03-08 23:11:00,38.0,33.0,-100.00,NE,45,1.0,2.0,83,-99.99,,,-99.99,,2013-03-09 07:11:00,
2013-03-08 23:21:00,37.0,33.0,-100.00,NE,45,1.0,2.0,84,-99.99,,,-99.99,,2013-03-09 07:21:00,
2013-03-08 23:31:00,36.0,32.0,-100.00,NE,45,3.0,3.0,85,-99.99,,,-99.99,,2013-03-09 07:31:00,
2013-03-08 23:41:00,36.0,32.0,-100.00,NE,45,3.0,3.0,85,-99.99,,,-99.99,,2013-03-09 07:41:00,
2013-03-08 23:52:00,36.0,32.0,-100.00,NE,45,2.0,3.0,86,-99.99,,,-99.99,,2013-03-09 07:52:00,